Home   Weather   Macau   Past weeks

Flag for Macau Past Weather in Macau, Macau — Yesterday and Last 2 Weeks

Now
64 °F

Clear.


Feels Like: 64 °F
Forecast: 61 / 65 °F
Wind: 9 mph from Southeast

Location: Taipa

Current Time: Jan 23, 2017 at 4:56:14 pm

Latest Report: Jan 23, 2017 at 4:00 pm


Visibility: 6 mi

Pressure: 30.21 "Hg

Humidity: 68%

Dew Point: 54 °F

Location of MacauLocation

Past Weather in Macau — Graph

°F

Macau Temperature Yesterday

Maximum temperature yesterday: 66 °F (at 4:00 pm)
Minimum temperature yesterday: 57 °F (at 7:00 am)
Average temperature yesterday: 61 °F

High & Low Weather Summary for the Past Weeks

 TemperatureHumidityPressure
High77 °F (Jan 8, 3:00 pm)94% (Jan 13, 4:00 am)30.36 "Hg (Jan 13, 4:00 am)
Low55 °F (Jan 13, 4:00 am)45% (Jan 22, 12:00 pm)29.86 "Hg (Jan 8, 3:00 pm)
Average63 °F79%30.11 "Hg
* Reported Jan 8 3:00 pm — Jan 23 3:30 pm, Macau, Weather by CustomWeather, © 2017

Note: Actual official high and low records may vary slightly from our data, if they occured in-between our weather recording intervals... More about our weather records

Advertising

Macau Weather History for the Previous 24 Hours

Scroll right to see more
 ConditionsComfort  
Time TempWeatherWind HumidityBarometerVisibility
3:30 pm
Mon, Jan 23
66 °FPassing clouds.6 mph60%30.21 "HgN/A
3:00 pm66 °FPassing clouds.5 mph52%30.21 "HgN/A
2:30 pm64 °FPassing clouds.5 mph52%30.21 "HgN/A
2:00 pm66 °FPassing clouds.6 mph49%30.24 "HgN/A
1:30 pm64 °FSunny.7 mph56%30.24 "Hg10 mi
1:00 pm64 °FSunny.8 mph56%30.27 "Hg10 mi
12:30 pm64 °FClear.9 mph60%30.30 "Hg6 mi
12:00 pm64 °FSunny.10 mph60%30.30 "Hg10 mi
11:30 am63 °FSunny.10 mph64%30.33 "Hg10 mi
11:00 am63 °FSunny.12 mph68%30.33 "Hg10 mi
10:30 am63 °FSunny.13 mph64%30.33 "Hg10 mi
10:00 am61 °FSunny.13 mph68%30.33 "Hg10 mi
9:30 am61 °FSunny.14 mph68%30.33 "Hg10 mi
9:00 am61 °FClear.13 mph68%30.33 "Hg6 mi
8:30 am59 °FClear.13 mph77%30.33 "Hg6 mi
8:00 am59 °FClear.13 mph77%30.30 "Hg5 mi
7:30 am59 °FPassing clouds.13 mph77%30.30 "Hg4 mi
7:00 am59 °FPassing clouds.14 mph77%30.27 "Hg5 mi
6:30 am59 °FPassing clouds.13 mph77%30.27 "Hg6 mi
6:00 am59 °FClear.12 mph77%30.27 "Hg10 mi
5:30 am61 °FClear.12 mph72%30.27 "Hg10 mi
4:30 am55 °FClear.7 mph82%30.27 "Hg10 mi
4:00 am55 °FClear.5 mph77%30.27 "Hg10 mi
3:30 am57 °FClear.3 mph72%30.27 "Hg10 mi
3:00 am55 °FClear.6 mph67%30.27 "Hg10 mi
2:30 am57 °FClear.3 mph72%30.27 "Hg10 mi
2:00 am57 °FClear.3 mph72%30.27 "Hg10 mi
1:30 am59 °FClear.3 mph68%30.27 "Hg10 mi
1:00 am59 °FClear.3 mph68%30.27 "Hg10 mi
12:30 am59 °FClear.5 mph68%30.27 "Hg10 mi
12:00 am57 °FClear.5 mph77%30.27 "Hg10 mi
11:30 pm
Sun, Jan 22
59 °FClear.2 mph72%30.27 "Hg10 mi
11:00 pm59 °FPassing clouds.3 mph72%30.27 "HgN/A
10:30 pm61 °FClear.2 mph68%30.27 "Hg10 mi
10:00 pm61 °FClear.2 mph68%30.27 "Hg10 mi
9:30 pm61 °FClear.3 mph63%30.27 "Hg10 mi
9:00 pm63 °FPassing clouds.3 mph59%30.24 "HgN/A
8:30 pm63 °FPassing clouds.5 mph64%30.27 "HgN/A
8:00 pm63 °FPassing clouds.5 mph56%30.24 "HgN/A
7:30 pm63 °FClear.6 mph59%30.24 "Hg10 mi
7:00 pm63 °FPassing clouds.5 mph56%30.24 "HgN/A
6:30 pm63 °FPassing clouds.6 mph56%30.24 "HgN/A
6:00 pm64 °FSunny.6 mph52%30.21 "Hg10 mi
5:30 pm64 °FSunny.6 mph49%30.21 "Hg10 mi
5:00 pm64 °FPassing clouds.8 mph52%30.21 "HgN/A
4:30 pm64 °FSunny.8 mph52%30.21 "Hg10 mi
4:00 pm66 °FSunny.9 mph49%30.21 "Hg10 mi
Weather by CustomWeather, © 2017

See weather overviewHow to use our weather pages